Погода в Веселиновке

Украина / Киевская область     50°14′56″N   31°16′10″E
темп.,
°C
ветер,
м/с
пор.,
м/с
влажн.,
%
обл.,
%
осадки,
мм/ч
давл.,
гПа
погр.,
м
27 сентября, пн
пн2700:00+10ссз36635 0.0 1021124
03:00+10ссз37671 0.0 1021247
06:00+7ссз37910 0.0 1022203
09:00+9с46790 0.0 1023408
12:00+12ссв45596 0.0 1023967
15:00+14ссв455624 0.0 10231161
18:00+13ссв4757100 0.0 1023533
21:00+9с38755 0.0 1023191
28 сентября, вт
вт2800:00+8ссв34825 0.0 102462
03:00+7ссв34935 0.0 102484
06:00+6ссв34955 0.0 102473
09:00+9ссв35805 0.0 1025312
12:00+13св456054 0.0 10261219
15:00+15св444990 0.3 10251685
18:00+12св586385 0.1 1027506
21:00+10всв3778100 0.1 1028362
29 сентября, ср
ср2900:00+10всв4881100 0.1 1030450
03:00+9всв4779100 0.1 1030425
06:00+7всв478514 0.0 1031239
09:00+8в58799 0.0 1032490
12:00+12в565951 0.0 10321231
15:00+12в4551100 0.0 10321475
18:00+11в4551100 0.0 1032547
21:00+10в235493 0.0 103385
30 сентября, чт
чт3000:00+8св356611 0.0 1033122
03:00+6в34706 0.0 103360
06:00+5в34685 0.0 103466
09:00+8вюв46555 0.0 1034256
12:00+13юв45395 0.0 10341022
15:00+15юв34335 0.0 10331371
18:00+12вюв33431 0.0 103236
21:00+8вюв34530 0.0 103363
1 октября, пт
пт100:00+7вюв35580 0.0 103470
03:00+6юв34610 0.0 103451
06:00+5юв33623 0.0 103541
09:00+8юв35525 0.0 1035196
12:00+14ююв45401 0.0 10351019
15:00+16юв44345 0.0 10341445
18:00+13юв34455 0.0 103365
21:00+9юв3549100 0.0 103382